Location: Maccacari
(45.1333°N, 11.1333°E)
Time: 19:00:28
(UTC+00:00)

USA 234 - Pass Details

Date: 18 January 2021
Orbit: 1100 x 1107 km, 123.0° (Epoch: 01 March)

Event Time Altitude Azimuth Distance (km) Brightness Sun altitude
Exits shadow 20:09:16 32° 299° (WNW) 1,788 4.6 -42.7°
Drops below altitude 10° 20:12:34 10° 306° (NW) 2,965 6.1 -43.3°
Sets 20:15:04 0° 309° (NW) 3,927 6.8 -43.7°
